Time,TemperatureF,DewpointF,PressureIn,WindDirection,WindDirectionDegrees,WindSpeedMPH,WindSpeedGustMPH,Humidity,HourlyPrecipIn,Conditions,Clouds,dailyrainin,SoftwareType,DateUTC
2013-06-28 00:00:00,74.0,71.0,29.56,SSW,200,7.0,19.0,90,0.03,,,-99.99,,2013-06-28 04:00:00,
2013-06-28 00:33:00,74.0,71.0,29.56,SSW,200,7.0,19.0,90,0.03,,,-99.99,,2013-06-28 04:33:00,
2013-06-28 00:43:00,74.0,71.0,29.56,SSW,200,7.0,19.0,90,0.03,,,-99.99,,2013-06-28 04:43:00,
2013-06-28 00:53:00,74.0,71.0,29.56,SSW,200,7.0,19.0,90,0.03,,,-99.99,,2013-06-28 04:53:00,
2013-06-28 01:00:00,73.0,69.0,29.56,SSW,196,3.0,18.0,88,0.00,,,-99.99,,2013-06-28 05:00:00,
2013-06-28 01:33:00,73.0,69.0,29.56,SSW,196,3.0,18.0,88,0.00,,,-99.99,,2013-06-28 05:33:00,
2013-06-28 01:43:00,73.0,69.0,29.56,SSW,196,3.0,18.0,88,0.00,,,-99.99,,2013-06-28 05:43:00,
2013-06-28 01:53:00,73.0,69.0,29.56,SSW,196,3.0,18.0,88,0.00,,,-99.99,,2013-06-28 05:53:00,
2013-06-28 02:00:00,73.0,69.0,29.53,South,183,3.0,13.0,88,0.00,,,-99.99,,2013-06-28 06:00:00,
2013-06-28 02:34:00,73.0,69.0,29.53,South,183,3.0,13.0,88,0.00,,,-99.99,,2013-06-28 06:34:00,
2013-06-28 02:43:00,73.0,69.0,29.53,South,183,3.0,13.0,88,0.00,,,-99.99,,2013-06-28 06:43:00,
2013-06-28 02:52:00,73.0,69.0,29.53,South,183,3.0,13.0,88,0.00,,,-99.99,,2013-06-28 06:52:00,
2013-06-28 03:00:00,74.0,70.0,29.53,SSW,210,8.0,13.0,88,0.00,,,-99.99,,2013-06-28 07:00:00,
2013-06-28 03:33:00,74.0,70.0,29.53,SSW,210,8.0,13.0,88,0.00,,,-99.99,,2013-06-28 07:33:00,
2013-06-28 03:43:00,74.0,70.0,29.53,SSW,210,8.0,13.0,88,0.00,,,-99.99,,2013-06-28 07:43:00,
2013-06-28 03:52:00,74.0,70.0,29.53,SSW,210,8.0,13.0,88,0.00,,,-99.99,,2013-06-28 07:52:00,
2013-06-28 04:00:00,74.0,69.0,29.53,SSW,203,3.0,13.0,86,0.00,,,-99.99,,2013-06-28 08:00:00,
2013-06-28 04:33:00,74.0,69.0,29.53,SSW,203,3.0,13.0,86,0.00,,,-99.99,,2013-06-28 08:33:00,
2013-06-28 04:43:00,74.0,69.0,29.53,SSW,203,3.0,13.0,86,0.00,,,-99.99,,2013-06-28 08:43:00,
2013-06-28 04:52:00,74.0,69.0,29.53,SSW,203,3.0,13.0,86,0.00,,,-99.99,,2013-06-28 08:52:00,
2013-06-28 05:00:00,73.0,69.0,29.50,SW,214,3.0,12.0,85,0.00,,,-99.99,,2013-06-28 09:00:00,
2013-06-28 05:33:00,73.0,69.0,29.50,SW,214,3.0,12.0,85,0.00,,,-99.99,,2013-06-28 09:33:00,
2013-06-28 05:42:00,73.0,69.0,29.50,SW,214,3.0,12.0,85,0.00,,,-99.99,,2013-06-28 09:42:00,
2013-06-28 05:52:00,73.0,69.0,29.50,SW,214,3.0,12.0,85,0.00,,,-99.99,,2013-06-28 09:52:00,
2013-06-28 06:00:00,73.0,68.0,29.53,South,180,1.0,14.0,85,0.00,,,-99.99,,2013-06-28 10:00:00,
2013-06-28 06:33:00,73.0,68.0,29.53,South,180,1.0,14.0,85,0.00,,,-99.99,,2013-06-28 10:33:00,
2013-06-28 06:42:00,73.0,68.0,29.53,South,180,1.0,14.0,85,0.00,,,-99.99,,2013-06-28 10:42:00,
2013-06-28 06:52:00,73.0,68.0,29.53,South,180,1.0,14.0,85,0.00,,,-99.99,,2013-06-28 10:52:00,
2013-06-28 07:00:00,74.0,69.0,29.53,SW,226,3.0,-999.0,84,-99.99,,,-99.99,,2013-06-28 11:00:00,
2013-06-28 07:34:00,74.0,69.0,29.53,SW,226,3.0,-999.0,84,-99.99,,,-99.99,,2013-06-28 11:34:00,
2013-06-28 07:43:00,74.0,69.0,29.53,SW,226,3.0,-999.0,84,-99.99,,,-99.99,,2013-06-28 11:43:00,
2013-06-28 07:53:00,74.0,69.0,29.53,SW,226,3.0,-999.0,84,-99.99,,,-99.99,,2013-06-28 11:53:00,
2013-06-28 08:00:00,75.0,69.0,29.53,SSW,213,7.0,12.0,80,0.00,,,-99.99,,2013-06-28 12:00:00,
2013-06-28 08:34:00,75.0,69.0,29.53,SSW,213,7.0,12.0,80,0.00,,,-99.99,,2013-06-28 12:34:00,
2013-06-28 08:43:00,75.0,69.0,29.53,SSW,213,7.0,12.0,80,0.00,,,-99.99,,2013-06-28 12:43:00,
2013-06-28 08:52:00,75.0,69.0,29.53,SSW,213,7.0,12.0,80,0.00,,,-99.99,,2013-06-28 12:52:00,
2013-06-28 09:00:00,77.0,68.0,29.53,WSW,252,5.0,11.0,73,0.00,,,-99.99,,2013-06-28 13:00:00,
2013-06-28 09:43:00,77.0,68.0,29.53,WSW,252,5.0,11.0,73,0.00,,,-99.99,,2013-06-28 13:43:00,
2013-06-28 09:53:00,77.0,68.0,29.53,WSW,252,5.0,11.0,73,0.00,,,-99.99,,2013-06-28 13:53:00,
2013-06-28 10:00:00,76.0,68.0,29.50,NW,325,1.0,-999.0,76,-99.99,,,-99.99,,2013-06-28 14:00:00,
2013-06-28 10:33:00,76.0,68.0,29.50,NW,325,1.0,-999.0,76,-99.99,,,-99.99,,2013-06-28 14:33:00,
2013-06-28 10:44:00,76.0,68.0,29.50,NW,325,1.0,-999.0,76,-99.99,,,-99.99,,2013-06-28 14:44:00,
2013-06-28 10:53:00,76.0,68.0,29.50,NW,325,1.0,-999.0,76,-99.99,,,-99.99,,2013-06-28 14:53:00,
2013-06-28 11:00:00,78.0,68.0,29.50,West,273,0.0,9.0,71,0.00,,,-99.99,,2013-06-28 15:00:00,
2013-06-28 11:34:00,78.0,68.0,29.50,West,273,0.0,9.0,71,0.00,,,-99.99,,2013-06-28 15:34:00,
2013-06-28 11:43:00,78.0,68.0,29.50,West,273,0.0,9.0,71,0.00,,,-99.99,,2013-06-28 15:43:00,
2013-06-28 11:52:00,78.0,68.0,29.50,West,273,0.0,9.0,71,0.00,,,-99.99,,2013-06-28 15:52:00,
2013-06-28 13:00:00,80.0,67.0,29.50,WSW,254,5.0,10.0,64,0.00,,,-99.99,,2013-06-28 17:00:00,
2013-06-28 13:33:00,80.0,67.0,29.50,WSW,254,5.0,10.0,64,0.00,,,-99.99,,2013-06-28 17:33:00,
2013-06-28 13:44:00,80.0,67.0,29.50,WSW,254,5.0,10.0,64,0.00,,,-99.99,,2013-06-28 17:44:00,
2013-06-28 13:52:00,80.0,67.0,29.50,WSW,254,5.0,10.0,64,0.00,,,-99.99,,2013-06-28 17:52:00,
2013-06-28 14:00:00,83.0,67.0,29.50,SSE,162,3.0,11.0,58,0.00,,,-99.99,,2013-06-28 18:00:00,
2013-06-28 14:33:00,83.0,67.0,29.50,SSE,162,3.0,11.0,58,0.00,,,-99.99,,2013-06-28 18:33:00,
2013-06-28 14:43:00,83.0,67.0,29.50,SSE,162,3.0,11.0,58,0.00,,,-99.99,,2013-06-28 18:43:00,
2013-06-28 14:52:00,83.0,67.0,29.50,SSE,162,3.0,11.0,58,0.00,,,-99.99,,2013-06-28 18:52:00,
2013-06-28 15:00:00,84.0,63.0,29.50,SW,231,2.0,16.0,50,0.00,,,-99.99,,2013-06-28 19:00:00,
2013-06-28 15:43:00,84.0,63.0,29.50,SW,231,2.0,16.0,50,0.00,,,-99.99,,2013-06-28 19:43:00,
2013-06-28 15:53:00,84.0,63.0,29.50,SW,231,2.0,16.0,50,0.00,,,-99.99,,2013-06-28 19:53:00,
2013-06-28 16:00:00,86.0,62.0,29.47,WNW,301,11.0,16.0,45,0.00,,,-99.99,,2013-06-28 20:00:00,
2013-06-28 16:33:00,86.0,62.0,29.47,WNW,301,11.0,16.0,45,0.00,,,-99.99,,2013-06-28 20:33:00,
2013-06-28 16:43:00,86.0,62.0,29.47,WNW,301,11.0,16.0,45,0.00,,,-99.99,,2013-06-28 20:43:00,
2013-06-28 16:52:00,86.0,62.0,29.47,WNW,301,11.0,16.0,45,0.00,,,-99.99,,2013-06-28 20:52:00,
2013-06-28 17:00:00,86.0,62.0,29.47,WSW,254,9.0,13.0,45,0.00,,,-99.99,,2013-06-28 21:00:00,
2013-06-28 17:34:00,86.0,62.0,29.47,WSW,254,9.0,13.0,45,0.00,,,-99.99,,2013-06-28 21:34:00,
2013-06-28 17:43:00,86.0,62.0,29.47,WSW,254,9.0,13.0,45,0.00,,,-99.99,,2013-06-28 21:43:00,
2013-06-28 17:53:00,86.0,62.0,29.47,WSW,254,9.0,13.0,45,0.00,,,-99.99,,2013-06-28 21:53:00,
2013-06-28 18:00:00,84.0,65.0,29.47,SW,214,7.0,15.0,53,0.00,,,-99.99,,2013-06-28 22:00:00,
2013-06-28 18:34:00,84.0,65.0,29.47,SW,214,7.0,15.0,53,0.00,,,-99.99,,2013-06-28 22:34:00,
2013-06-28 18:43:00,84.0,65.0,29.47,SW,214,7.0,15.0,53,0.00,,,-99.99,,2013-06-28 22:43:00,
2013-06-28 18:53:00,84.0,65.0,29.47,SW,214,7.0,15.0,53,0.00,,,-99.99,,2013-06-28 22:53:00,
2013-06-28 19:00:00,84.0,65.0,29.47,SW,222,5.0,14.0,54,0.00,,,-99.99,,2013-06-28 23:00:00,
2013-06-28 19:34:00,84.0,65.0,29.47,SW,222,5.0,14.0,54,0.00,,,-99.99,,2013-06-28 23:34:00,
2013-06-28 19:43:00,84.0,65.0,29.47,SW,222,5.0,14.0,54,0.00,,,-99.99,,2013-06-28 23:43:00,
2013-06-28 19:53:00,84.0,65.0,29.47,SW,222,5.0,14.0,54,0.00,,,-99.99,,2013-06-28 23:53:00,
2013-06-28 20:00:00,82.0,66.0,29.47,SSE,161,3.0,18.0,58,0.00,,,-99.99,,2013-06-29 00:00:00,
2013-06-28 20:33:00,82.0,66.0,29.47,SSE,161,3.0,18.0,58,0.00,,,-99.99,,2013-06-29 00:33:00,
2013-06-28 20:42:00,82.0,66.0,29.47,SSE,161,3.0,18.0,58,0.00,,,-99.99,,2013-06-29 00:42:00,
2013-06-28 20:52:00,82.0,66.0,29.47,SSE,161,3.0,18.0,58,0.00,,,-99.99,,2013-06-29 00:52:00,
2013-06-28 21:00:00,81.0,66.0,29.50,SSW,212,2.0,16.0,61,0.00,,,-99.99,,2013-06-29 01:00:00,
2013-06-28 21:32:00,81.0,66.0,29.50,SSW,212,2.0,16.0,61,0.00,,,-99.99,,2013-06-29 01:32:00,
2013-06-28 21:42:00,81.0,66.0,29.50,SSW,212,2.0,16.0,61,0.00,,,-99.99,,2013-06-29 01:42:00,
2013-06-28 21:52:00,81.0,66.0,29.50,SSW,212,2.0,16.0,61,0.00,,,-99.99,,2013-06-29 01:52:00,
2013-06-28 22:00:00,78.0,63.0,29.53,West,259,8.0,21.0,59,0.00,,,-99.99,,2013-06-29 02:00:00,
2013-06-28 22:31:00,78.0,63.0,29.53,West,259,8.0,21.0,59,0.00,,,-99.99,,2013-06-29 02:31:00,
2013-06-28 22:41:00,78.0,63.0,29.53,West,259,8.0,21.0,59,0.00,,,-99.99,,2013-06-29 02:41:00,
2013-06-28 22:51:00,78.0,63.0,29.53,West,259,8.0,21.0,59,0.00,,,-99.99,,2013-06-29 02:51:00,
2013-06-28 23:00:00,76.0,63.0,29.50,SW,226,3.0,12.0,63,0.00,,,-99.99,,2013-06-29 03:00:00,
2013-06-28 23:32:00,76.0,63.0,29.50,SW,226,3.0,12.0,63,0.00,,,-99.99,,2013-06-29 03:32:00,
2013-06-28 23:41:00,76.0,63.0,29.50,SW,226,3.0,12.0,63,0.00,,,-99.99,,2013-06-29 03:41:00,
2013-06-28 23:51:00,76.0,63.0,29.50,SW,226,3.0,12.0,63,0.00,,,-99.99,,2013-06-29 03:51:00,